Regional Weather Roundup
Issued by NWS

Home | Current Version | Previous Version | Text Only | Print | Product List | Glossary On
Versions: 1 2 3 4 5 6 7 8 9 10 11 12 13 14 15 16 17 18 19 20 21 22 23 24 25 26 27 28 29 30 31 32 33 34 35 36 37 38 39 40 41 42 43 44 45 46 47 48 49 50
000
ASUS44 KLIX 310611
RWRLA
LOUISIANA WEATHER ROUNDUP
NATIONAL WEATHER SERVICE NEW ORLEANS LA
100 AM CDT SAT JUL 31 2021

NOTE: "FAIR" INDICATES FEW OR NO CLOUDS BELOW 12,000 FEET WITH NO
      SIGNIFICANT WEATHER AND/OR OBSTRUCTIONS TO VISIBILITY.
      SKY/WX - SKY CONDITION AND SIGNIFICANT WEATHER.
      TMP - AIR TEMPERATURE.    DP   - DEWPOINT TEMPERATURE.
      RH  - RELATIVE HUMIDITY.  PRES - PRESSURE.
      HX  - HEAT INDEX.         WCI  - WIND CHILL INDEX.

*  THESE STATIONS ARE NOT NWS OR FAA STATIONS AND ARE NOT UNDER
   NWS QUALITY CONTROL.

LAZ048-061-063-065-066-069-076-077-310700-
SOUTHEAST LOUISIANA

CITY           SKY/WX    TMP DP  RH WIND       PRES   REMARKS
N.O. INTL ARPT PTCLDY    84  79  85 SW3       30.03F HX  96
6HR MIN TEMP:  83; 6HR MAX TEMP:  91;

N.O. DWNTWN HE FAIR      85  79  82 CALM      30.04F HX  98
6HR MIN TEMP:  85; 6HR MAX TEMP:  93;

N.O. LAKEFRONT PTCLDY    87  80  79 W9        30.03F HX 103
6HR MIN TEMP:  87; 6HR MAX TEMP:  92;

RESERVE*       FAIR      80  77  91 CALM      30.04F
6HR MIN TEMP:  80; 6HR MAX TEMP:  90;

SLIDELL        PTCLDY    83  78  85 CALM      30.02F
6HR MIN TEMP:  82; 6HR MAX TEMP:  90;

BATON ROUGE    PTCLDY    80  78  94 CALM      30.03F
6HR MIN TEMP:  79; 6HR MAX TEMP:  89;

BOOTHVILLE*    NOT AVBL
BELLE CHASSE*  PTCLDY    80  80 100 CALM      30.03F
6HR MIN TEMP:  80; 6HR MAX TEMP:  88;

BOGALUSA*        N/A     80  76  88 CALM      30.03F
6HR MIN TEMP:  80; 6HR MAX TEMP:  90;

GALLIANO*      PTCLDY    81  76  86 CALM      30.04F
6HR MIN TEMP:  79; 6HR MAX TEMP:  88;

NEW ROADS*     FAIR      80  80  99 CALM      30.03F
6HR MIN TEMP:  80; 6HR MAX TEMP:  91;

GONZALES*      FAIR      81  78  91 CALM      30.03F
6HR MIN TEMP:  80; 6HR MAX TEMP:  92;

HAMMOND*       PTCLDY    81  77  89 CALM      30.03F
HOUMA*         NOT AVBL

$$

LAZ041-044-053-054-310700-
SOUTHWEST LOUISIANA

CITY           SKY/WX    TMP DP  RH WIND       PRES   REMARKS
LAKE CHARLES   CLEAR     81  79  94 CALM      30.04S
6HR MIN TEMP:  81; 6HR MAX TEMP:  89;

LAFAYETTE      CLEAR     81  76  84 CALM      30.04S
6HR MIN TEMP:  81; 6HR MAX TEMP:  89;

PATTERSON      CLEAR     79  79 100 CALM      30.05S
6HR MIN TEMP:  79; 6HR MAX TEMP:  86;

SALT POINT       N/A     86  78  77 VRB3      30.03S HX  98
6HR MIN TEMP:  86; 6HR MAX TEMP:  88;

NEW IBERIA     CLEAR     79  78  97 CALM      30.04F
6HR MIN TEMP:  79; 6HR MAX TEMP:  84;

CHENAULT AIRPK CLEAR     84  77  79 W6        30.04S
6HR MIN TEMP:  84; 6HR MAX TEMP:  91;


$$

LAZ027-028-310700-
CENTRAL LOUISIANA

CITY           SKY/WX    TMP DP  RH WIND       PRES   REMARKS
FORT POLK      CLEAR     81  77  86 SW3       30.03F
6HR MIN TEMP:  80; 6HR MAX TEMP:  91;

ALEXANDRIA INT CLEAR     80  77  90 CALM      30.01F
6HR MIN TEMP:  80; 6HR MAX TEMP:  91;

ALEXANDRIA     CLEAR     79  77  94 CALM      30.02F FOG
6HR MIN TEMP:  79; 6HR MAX TEMP:  89;


$$

LAZ001-002-310700-
NORTHWEST LOUISIANA

CITY           SKY/WX    TMP DP  RH WIND       PRES   REMARKS
SHREVEPORT     CLEAR     84  76  76 CALM      30.02F
6HR MIN TEMP:  83; 6HR MAX TEMP:  95;

BARKSDALE AFB  CLEAR     81  75  83 SE5       30.02S
6HR MIN TEMP:  80; 6HR MAX TEMP:  93; 6HR PCP: TRACE;

DTN SHREVEPORT CLEAR     85  77  77 CALM      30.03S HX  95
6HR MIN TEMP:  84; 6HR MAX TEMP:  97;


$$

LAZ014-016-310700-
NORTHEAST LOUISIANA

CITY           SKY/WX    TMP DP  RH WIND       PRES   REMARKS
MONROE         CLEAR     84  78  82 CALM      30.03F HX  95
6HR MIN TEMP:  81; 6HR MAX TEMP:  93;

TALLULAH       CLEAR     81  76  84 CALM      30.03S HAZE
6HR MIN TEMP:  81; 6HR MAX TEMP:  94;


$$




USA.gov is the U.S. government's official web portal to all federal, state and local government web resources and services.